Location: Unspecified
(0.0000°N, 0.0000°E)
Time: 16:00:59
(UTC+01:00)

Tiangong 1 - Visible Passes

Search period start: 26 November 2014 00:00
Search period end: 06 December 2014 00:00
Orbit: 369 x 391 km, 42.8° (Epoch: 26 November)

Date Brightness Start Highest point End Pass type
(mag) Time Alt. Az. Time Alt. Az. Time Alt. Az.
03 Dec 2.4 20:18:08 10° SSW 20:20:13 31° S 20:20:13 31° S visible
04 Dec 3.3 19:16:51 10° SSE 19:18:27 13° SE 19:20:02 10° ESE visible
04 Dec 4.2 20:52:17 10° W 20:52:56 14° W 20:52:56 14° W visible
05 Dec 1.0 19:48:55 10° SW 19:52:00 80° NW 19:53:26 29° NE visible
